• Em Portugal
  • Lista de países
  • Para 7 dias
  • Temperatura da água
  • Mapas de satélite
  • Mapa do tempo
  • Widgets de tempo
  • user-avatar
    Iniciar Sessão

    Previsão horária em Pegu

    Hoje, 18 Junho, Segunda-feira

    Tempo Temperatura Precipitação Vento Pressão Humidade
    00:00 +33°C° 0,1 mm 5 m/s 744 mmHg 68%
    01:00 +33°C° 0 mm 5 m/s 743 mmHg 70%
    02:00 +32°C° 0 mm 5 m/s 743 mmHg 72%
    03:00 +32°C° 0 mm 4 m/s 743 mmHg 73%
    04:00 +32°C° 0,3 mm 4 m/s 743 mmHg 74%
    05:00 +30°C° 0,3 mm 4 m/s 743 mmHg 75%
    06:00 +30°C° 0,3 mm 4 m/s 744 mmHg 76%
    07:00 +33°C° 0,1 mm 4 m/s 744 mmHg 70%
    08:00 +34°C° 0,1 mm 4 m/s 744 mmHg 64%
    09:00 +35°C° 0,1 mm 4 m/s 744 mmHg 59%
    10:00 +37°C° 0 mm 4 m/s 744 mmHg 54%
    11:00 +38°C° 0 mm 4 m/s 743 mmHg 49%
    12:00 +39°C° 0 mm 3 m/s 743 mmHg 44%
    13:00 +40°C° 0 mm 3 m/s 742 mmHg 41%
    14:00 +40°C° 0 mm 3 m/s 742 mmHg 39%
    15:00 +42°C° 0 mm 3 m/s 741 mmHg 37%
    16:00 +40°C° 0 mm 2 m/s 741 mmHg 39%
    17:00 +40°C° 0 mm 2 m/s 741 mmHg 41%
    18:00 +39°C° 0 mm 2 m/s 741 mmHg 43%
    19:00 +38°C° 0 mm 3 m/s 742 mmHg 47%
    20:00 +37°C° 0 mm 4 m/s 742 mmHg 51%
    21:00 +36°C° 0 mm 5 m/s 743 mmHg 55%
    22:00 +35°C° 0,1 mm 5 m/s 743 mmHg 58%
    23:00 +35°C° 0,1 mm 6 m/s 743 mmHg 61%

    Amanhã, 19 Junho, Terça-feira

    Tempo Temperatura Precipitação Vento Pressão Humidade
    00:00 +34°C° 0,1 mm 6 m/s 743 mmHg 64%
    01:00 +33°C° 0,1 mm 6 m/s 743 mmHg 66%
    02:00 +33°C° 0,1 mm 5 m/s 743 mmHg 68%
    03:00 +32°C° 0,1 mm 5 m/s 742 mmHg 70%
    04:00 +32°C° 0,2 mm 5 m/s 743 mmHg 71%
    05:00 +32°C° 0,2 mm 5 m/s 743 mmHg 72%
    06:00 +30°C° 0,2 mm 4 m/s 744 mmHg 73%
    07:00 +33°C° 0 mm 4 m/s 744 mmHg 68%
    08:00 +34°C° 0 mm 5 m/s 744 mmHg 63%
    09:00 +35°C° 0 mm 5 m/s 745 mmHg 58%
    10:00 +37°C° 0 mm 4 m/s 744 mmHg 53%
    11:00 +38°C° 0 mm 4 m/s 744 mmHg 48%
    12:00 +40°C° 0 mm 4 m/s 744 mmHg 44%
    13:00 +40°C° 0 mm 3 m/s 743 mmHg 42%
    14:00 +40°C° 0 mm 3 m/s 742 mmHg 40%
    15:00 +42°C° 0 mm 3 m/s 742 mmHg 37%
    16:00 +40°C° 0 mm 3 m/s 742 mmHg 40%
    17:00 +40°C° 0 mm 3 m/s 742 mmHg 42%
    18:00 +39°C° 0 mm 3 m/s 742 mmHg 44%
    19:00 +38°C° 0 mm 4 m/s 743 mmHg 49%
    20:00 +38°C° 0 mm 6 m/s 743 mmHg 53%
    21:00 +36°C° 0 mm 7 m/s 744 mmHg 57%
    22:00 +35°C° 0 mm 7 m/s 744 mmHg 60%
    23:00 +34°C° 0 mm 7 m/s 744 mmHg 63%

    Depois de amanhã, 20 Junho, Quarta-feira

    Tempo Temperatura Precipitação Vento Pressão Humidade
    00:00 +33°C° 0 mm 7 m/s 744 mmHg 66%
    01:00 +33°C° 0,2 mm 7 m/s 744 mmHg 68%
    02:00 +32°C° 0,2 mm 6 m/s 744 mmHg 70%
    03:00 +30°C° 0,2 mm 6 m/s 744 mmHg 72%
    04:00 +30°C° 0,2 mm 6 m/s 744 mmHg 73%
    05:00 +30°C° 0,2 mm 6 m/s 744 mmHg 74%
    06:00 +30°C° 0,2 mm 6 m/s 745 mmHg 74%
    07:00 +32°C° 0 mm 6 m/s 745 mmHg 69%
    08:00 +33°C° 0 mm 5 m/s 745 mmHg 64%
    09:00 +35°C° 0 mm 5 m/s 746 mmHg 59%
    10:00 +36°C° 0 mm 5 m/s 745 mmHg 54%
    11:00 +39°C° 0 mm 5 m/s 745 mmHg 50%
    12:00 +40°C° 0 mm 4 m/s 745 mmHg 45%
    13:00 +40°C° 0 mm 4 m/s 744 mmHg 43%
    14:00 +41°C° 0 mm 4 m/s 743 mmHg 42%
    15:00 +40°C° 0 mm 3 m/s 743 mmHg 41%
    16:00 +40°C° 0 mm 4 m/s 743 mmHg 44%
    17:00 +38°C° 0 mm 4 m/s 743 mmHg 48%
    18:00 +37°C° 0 mm 4 m/s 743 mmHg 51%
    19:00 +36°C° 1,2 mm 5 m/s 743 mmHg 56%
    20:00 +35°C° 1,2 mm 6 m/s 744 mmHg 61%
    21:00 +34°C° 1,2 mm 6 m/s 744 mmHg 65%
    22:00 +33°C° 0,9 mm 6 m/s 745 mmHg 68%
    23:00 +33°C° 0,9 mm 6 m/s 745 mmHg 71%

    21 Junho, Quinta-feira

    Tempo Temperatura Precipitação Vento Pressão Humidade
    00:00 +32°C° 0,9 mm 6 m/s 745 mmHg 74%
    01:00 +30°C° 0,4 mm 6 m/s 745 mmHg 75%
    02:00 +30°C° 0,4 mm 6 m/s 744 mmHg 76%
    03:00 +30°C° 0,4 mm 5 m/s 744 mmHg 77%
    04:00 +30°C° 0,4 mm 5 m/s 745 mmHg 77%
    05:00 +29°C° 0,4 mm 5 m/s 745 mmHg 78%
    06:00 +29°C° 0,4 mm 5 m/s 745 mmHg 78%
    07:00 +30°C° 0,1 mm 5 m/s 746 mmHg 74%
    08:00 +32°C° 0,1 mm 6 m/s 746 mmHg 70%
    09:00 +33°C° 0,1 mm 6 m/s 746 mmHg 66%
    10:00 +35°C° 0 mm 6 m/s 746 mmHg 61%
    11:00 +36°C° 0 mm 6 m/s 745 mmHg 56%
    12:00 +38°C° 0 mm 6 m/s 745 mmHg 51%
    13:00 +39°C° 0 mm 6 m/s 744 mmHg 50%
    14:00 +39°C° 0 mm 6 m/s 743 mmHg 49%
    15:00 +39°C° 0 mm 6 m/s 743 mmHg 47%
    16:00 +39°C° 0 mm 6 m/s 743 mmHg 50%
    17:00 +38°C° 0 mm 6 m/s 743 mmHg 53%
    18:00 +36°C° 0 mm 6 m/s 743 mmHg 56%
    19:00 +35°C° 0,1 mm 6 m/s 744 mmHg 59%
    20:00 +34°C° 0,1 mm 7 m/s 744 mmHg 63%
    21:00 +33°C° 0,1 mm 7 m/s 745 mmHg 67%
    22:00 +32°C° 0,1 mm 7 m/s 745 mmHg 68%
    23:00 +32°C° 0,1 mm 7 m/s 744 mmHg 70%

    22 Junho, Sexta-feira

    Tempo Temperatura Precipitação Vento Pressão Humidade
    00:00 +30°C° 0,1 mm 7 m/s 744 mmHg 72%
    01:00 +30°C° 0,2 mm 6 m/s 744 mmHg 72%
    02:00 +30°C° 0,2 mm 6 m/s 744 mmHg 73%
    03:00 +29°C° 0,2 mm 5 m/s 744 mmHg 74%
    04:00 +29°C° 0,4 mm 5 m/s 744 mmHg 74%
    05:00 +29°C° 0,4 mm 5 m/s 745 mmHg 75%
    06:00 +29°C° 0,4 mm 5 m/s 745 mmHg 75%
    07:00 +30°C° 0 mm 5 m/s 745 mmHg 71%
    08:00 +33°C° 0 mm 5 m/s 746 mmHg 66%
    09:00 +34°C° 0 mm 5 m/s 746 mmHg 62%
    10:00 +35°C° 0 mm 5 m/s 746 mmHg 59%
    11:00 +36°C° 0 mm 5 m/s 745 mmHg 55%
    12:00 +37°C° 0 mm 5 m/s 745 mmHg 52%
    13:00 +37°C° 0,2 mm 5 m/s 744 mmHg 51%
    14:00 +37°C° 0,2 mm 5 m/s 744 mmHg 51%
    15:00 +37°C° 0,2 mm 5 m/s 743 mmHg 50%
    16:00 +36°C° 0,1 mm 5 m/s 743 mmHg 53%
    17:00 +36°C° 0,1 mm 5 m/s 744 mmHg 57%
    18:00 +35°C° 0,1 mm 6 m/s 744 mmHg 60%
    19:00 +34°C° 0,4 mm 6 m/s 744 mmHg 62%
    20:00 +34°C° 0,4 mm 6 m/s 745 mmHg 65%
    21:00 +33°C° 0,4 mm 6 m/s 745 mmHg 68%
    22:00 +32°C° 0,5 mm 6 m/s 745 mmHg 70%
    23:00 +32°C° 0,5 mm 6 m/s 745 mmHg 72%

    23 Junho, Sábado

    Tempo Temperatura Precipitação Vento Pressão Humidade
    00:00 +30°C° 0,5 mm 6 m/s 744 mmHg 74%
    01:00 +30°C° 0,3 mm 6 m/s 744 mmHg 75%
    02:00 +30°C° 0,3 mm 6 m/s 744 mmHg 76%
    03:00 +29°C° 0,3 mm 5 m/s 744 mmHg 77%
    04:00 +29°C° 0,5 mm 5 m/s 744 mmHg 77%
    05:00 +29°C° 0,5 mm 5 m/s 745 mmHg 78%
    06:00 +29°C° 0,5 mm 5 m/s 745 mmHg 79%
    07:00 +29°C° 0,2 mm 5 m/s 745 mmHg 78%
    08:00 +29°C° 0,2 mm 5 m/s 746 mmHg 77%
    09:00 +29°C° 0,2 mm 6 m/s 746 mmHg 76%
    10:00 +29°C° 0,2 mm 5 m/s 746 mmHg 76%
    11:00 +30°C° 0,2 mm 5 m/s 745 mmHg 75%
    12:00 +30°C° 0,2 mm 5 m/s 745 mmHg 74%
    13:00 +30°C° 0,9 mm 6 m/s 745 mmHg 75%
    14:00 +30°C° 0,9 mm 6 m/s 744 mmHg 76%
    15:00 +29°C° 0,9 mm 6 m/s 744 mmHg 77%
    16:00 +29°C° 0,4 mm 6 m/s 744 mmHg 78%
    17:00 +29°C° 0,4 mm 5 m/s 744 mmHg 80%
    18:00 +29°C° 0,4 mm 5 m/s 744 mmHg 81%
    19:00 +28°C° 0,5 mm 5 m/s 745 mmHg 82%
    20:00 +28°C° 0,5 mm 5 m/s 745 mmHg 83%
    21:00 +28°C° 0,5 mm 5 m/s 745 mmHg 83%
    22:00 +28°C° 0,7 mm 5 m/s 745 mmHg 84%
    23:00 +28°C° 0,7 mm 5 m/s 745 mmHg 85%
    Mostrar mais